Vorticity
nan nan nan nan nan nan nan nan nan nan nan nan nan nan nan nan nan nan nan nan nan nan nan nan nan nan nan nan nan nan nan nan nan nan nan nan nan nan nan nan nan nan nan nan nan nan nan nan nan
nan 4 6 7 5 5 5 6 7 5 3 6 10 5 7 7 10 11 8 12 7 4 5 8 9 6 4 6 5 5 4 5 5 5 5 4 5 5 6 5 5 5 6 6 5 4 4 5 nan
nan 6 7 8 6 6 7 7 5 6 7 7 7 8 9 6 11 7 8 11 6 4 7 11 8 7 5 6 5 5 5 4 4 5 5 5 5 5 6 6 6 7 7 7 7 7 7 8 nan
nan 7 8 8 7 6 6 5 8 7 10 9 5 4 7 12 12 9 11 5 5 5 9 11 7 6 5 5 4 3 4 5 5 5 5 5 5 5 6 7 6 6 6 7 9 8 9 8 nan
nan 7 7 5 4 8 8 7 5 5 9 10 7 5 4 13 15 11 6 5 4 4 8 10 9 5 6 5 5 5 4 4 5 5 5 5 6 6 5 5 6 6 6 7 8 7 7 7 nan
nan 7 5 7 7 7 6 9 6 8 9 5 7 7 9 11 6 5 5 5 6 5 7 10 9 5 6 6 7 5 5 4 4 5 5 6 7 6 5 5 6 6 6 6 8 8 7 7 nan
nan 7 6 5 7 8 10 7 6 8 6 8 6 4 8 8 7 7 5 6 7 6 6 7 10 11 7 5 6 5 6 6 5 6 7 7 6 7 6 6 6 5 6 6 6 7 6 6 nan
nan 6 6 6 8 8 13 7 6 7 5 7 7 8 8 13 9 5 7 7 6 7 6 7 7 7 7 9 8 5 5 7 8 6 6 7 7 7 5 6 7 8 5 4 6 7 8 7 nan
nan 6 6 10 7 8 8 4 5 8 9 7 11 12 17 14 4 5 4 5 6 6 6 7 7 6 6 7 9 10 6 6 7 7 7 4 5 7 8 8 6 5 4 4 4 6 7 8 nan
nan 6 8 6 6 10 7 6 7 6 4 5 6 15 17 7 4 4 3 5 4 5 5 6 7 6 6 6 8 8 6 7 8 7 8 8 6 7 8 9 12 8 2 5 5 7 8 8 nan
nan 3 7 9 7 8 9 9 6 6 7 11 12 9 5 3 4 4 5 7 6 4 6 7 6 7 6 6 7 6 7 7 8 6 6 6 6 6 7 9 8 10 10 8 9 8 10 9 nan
nan 9 4 9 13 8 9 6 7 3 8 19 18 7 4 5 4 5 5 6 7 6 6 5 6 6 5 7 8 7 6 7 7 7 6 6 6 7 7 7 8 8 10 9 8 7 7 8 nan
nan 5 8 11 7 7 10 5 8 8 10 17 13 8 5 4 4 6 7 6 8 9 8 6 6 5 6 5 6 7 7 7 7 8 7 6 6 7 9 9 8 8 7 8 8 7 8 9 nan
nan 7 9 14 10 7 6 5 6 13 11 11 9 5 6 6 5 4 8 7 6 7 8 7 6 7 7 6 6 6 7 8 7 7 7 7 7 7 9 9 7 8 9 7 8 8 8 8 nan
nan 9 15 12 10 7 8 5 8 11 12 7 4 5 7 6 7 7 6 6 6 7 8 8 6 7 7 7 6 7 8 7 7 8 8 8 7 7 8 7 8 9 9 8 8 9 9 8 nan
nan 9 8 9 9 11 6 5 13 10 8 5 4 8 7 6 6 6 7 7 7 9 8 8 8 7 6 7 7 8 8 7 8 8 9 9 8 9 7 7 9 8 7 10 10 8 8 9 nan
nan 7 3 12 10 9 3 5 11 10 8 6 7 6 5 9 7 8 7 8 8 7 8 7 9 8 6 7 8 9 8 6 8 7 9 10 9 8 7 7 9 8 7 8 7 8 8 8 nan
nan 7 11 4 7 8 3 4 8 12 10 7 5 8 8 8 9 8 8 9 9 9 8 7 8 8 8 7 8 8 9 8 8 8 8 9 9 7 7 8 8 8 7 8 7 8 8 8 nan
nan 8 2 5 15 14 10 8 8 8 5 9 9 7 10 9 12 15 13 9 7 9 9 8 6 7 6 6 8 8 9 8 9 9 9 8 8 8 7 7 8 8 8 8 8 8 9 7 nan
nan 7 8 13 16 12 10 12 14 12 12 10 7 10 8 10 12 13 13 10 8 7 7 8 6 6 5 7 8 9 10 9 9 9 10 9 9 9 7 7 7 7 9 10 8 7 7 8 nan
nan 7 9 9 6 7 8 11 13 13 11 9 6 10 14 10 9 9 9 8 7 7 9 8 8 6 6 7 6 7 8 10 9 9 10 11 12 9 7 7 8 7 8 9 9 9 7 7 nan
nan 14 7 10 10 8 8 13 6 11 10 9 8 6 7 8 9 10 9 9 8 7 8 9 9 7 9 7 6 7 7 7 8 9 9 12 12 8 7 8 8 7 9 8 8 8 8 9 nan
nan 9 15 12 10 10 8 14 7 9 12 13 15 10 7 8 10 11 10 10 9 9 9 8 10 7 9 8 6 6 6 7 8 9 9 8 9 9 9 9 9 8 8 8 9 8 7 8 nan
nan 6 7 9 7 7 11 7 7 6 8 12 15 15 12 9 7 9 12 10 10 11 11 11 8 7 8 8 8 8 6 6 6 8 8 8 8 9 8 9 9 9 8 8 9 9 8 8 nan
nan 8 7 5 12 9 6 9 7 3 12 9 9 17 15 12 8 11 11 7 6 5 5 9 9 8 9 8 7 8 8 8 7 7 8 8 7 9 10 9 8 9 9 9 9 9 9 9 nan
nan 7 7 10 7 11 9 6 10 8 6 10 16 19 14 10 10 13 9 5 2 7 10 8 7 8 10 8 8 7 7 7 9 8 8 8 8 9 10 9 9 8 9 9 9 8 9 8 nan
nan 8 9 7 8 12 7 6 9 4 5 10 12 14 15 13 12 14 12 9 4 7 10 10 9 9 9 8 8 8 7 8 9 8 7 8 8 9 9 9 9 10 10 9 9 8 9 9 nan
nan 5 6 10 12 7 10 12 6 1 7 6 7 8 15 19 12 12 14 11 10 7 8 8 10 10 9 9 8 9 9 7 8 10 9 7 8 8 9 9 11 10 10 9 8 8 10 9 nan
nan 7 11 15 10 10 9 11 12 5 8 8 6 8 13 18 13 9 16 13 10 3 6 11 10 10 10 9 9 9 9 9 8 7 9 10 9 9 9 10 10 9 8 9 9 8 8 9 nan
nan nan nan nan nan nan nan nan nan nan nan nan nan nan nan nan nan nan nan nan nan nan nan nan nan nan nan nan nan nan nan nan nan nan nan nan nan nan nan nan nan nan nan nan nan nan nan nan nan
CAPE
181 730 838 707 2 0 29 206 88 117 71 74 143 63 92 139 162 36 265 371 744 1078 1730 2378 2803 2941 2204 2539 2732 2470 2491 2319 2495 2459 2091 1671 1464 1445 1421 1318 1352 1457 1425 1582 1679 1389 1436 1196 1134
808 958 750 152 0 0 1 26 69 48 71 151 177 114 42 99 266 395 327 731 749 1055 1599 2057 2899 2907 2632 2189 2454 2487 2180 2152 2045 1952 1846 1776 1522 1403 1339 1293 1462 1501 1534 1487 1579 1483 1417 1388 1168
0 99 393 4 0 0 3 19 30 32 103 177 225 40 66 130 265 227 335 954 1058 1176 1449 1655 2708 2601 2413 2281 2345 2281 2328 2259 2096 1962 1892 1721 1575 1461 1409 1453 1484 1537 1340 1245 1505 1503 1176 1429 1306
37 155 5 5 11 0 1 9 22 181 386 389 232 43 53 68 225 232 722 1167 1188 1316 1580 2339 2482 2397 2379 2330 2537 2253 2187 2329 2178 1982 1902 1576 1525 1592 1553 1642 1609 1516 1452 1375 1319 1357 1370 1220 1268
553 1 0 1 108 13 14 73 194 484 404 400 106 49 27 94 283 459 856 1002 1158 1292 1703 1961 2950 2816 2072 2254 2425 2268 2342 2424 1968 1787 1838 1676 1504 1513 1519 1545 1484 1411 1232 1274 1306 1334 1366 1043 1079
25 0 0 0 20 256 74 256 482 619 593 231 97 58 16 303 419 487 679 861 1135 1325 1791 1939 2267 2741 2548 2527 2479 2446 2431 2272 1888 1804 1811 1638 1626 1421 1348 1479 1441 1574 1425 1166 1301 1359 1425 1189 987
16 1 0 0 0 136 240 357 363 370 145 144 125 62 33 161 296 438 516 665 924 1381 1533 1671 1879 2296 2418 2484 2451 2186 2126 2116 1913 1890 1656 1693 1520 1670 1568 1450 1172 1213 1399 1022 1077 1210 1293 1153 979
33 1 5 0 0 4 339 531 460 109 71 79 65 58 114 72 133 123 396 585 876 1302 1381 1373 1402 1436 1491 1621 1979 1736 1722 1607 2104 1980 1530 1437 1559 1439 893 1460 1337 1554 896 833 866 951 1111 1073 1093
0 0 0 7 13 19 616 627 207 1 0 0 151 43 38 74 86 269 402 599 950 1014 1129 1010 779 835 987 1064 1510 2141 2336 1340 1595 1533 1678 1603 754 729 1260 1392 1533 1027 759 1174 885 893 857 1154 1102
0 0 0 0 0 56 615 407 26 146 183 296 70 80 157 132 159 244 327 466 731 892 816 780 764 1039 933 1044 1003 1081 1234 1138 1073 479 537 785 644 610 1184 1527 1259 1031 368 188 111 196 370 777 849
0 0 0 90 46 161 263 220 208 82 163 268 64 149 267 252 229 219 276 274 431 758 821 800 759 832 756 830 749 668 702 694 242 9 187 261 607 534 852 661 863 656 587 444 443 381 426 489 382
0 0 45 317 246 365 311 255 327 135 89 187 14 148 422 355 297 308 323 365 341 570 697 763 707 711 583 576 610 535 543 412 367 16 0 47 75 181 305 325 515 379 303 437 434 259 215 240 201
0 0 0 487 384 642 419 384 305 212 154 130 5 157 412 417 374 297 326 417 398 407 487 681 616 647 547 527 404 278 420 432 269 75 11 0 236 189 83 296 523 180 210 323 570 257 251 111 199
0 0 0 246 481 493 460 314 418 172 255 187 103 156 206 250 316 224 203 315 381 376 357 488 544 481 493 546 275 133 182 257 143 105 65 15 9 36 92 238 189 249 125 145 277 306 212 112 135
0 0 0 353 350 517 478 437 423 144 313 287 222 189 190 155 138 184 145 373 375 417 329 324 441 321 381 384 192 63 125 150 105 99 58 38 0 27 137 160 55 241 370 459 262 346 172 148 156
0 0 0 0 444 473 529 245 185 129 264 288 268 189 240 135 83 227 249 293 293 387 304 250 603 474 348 282 138 102 135 124 121 66 32 14 0 75 114 72 92 77 79 71 425 460 385 224 203
0 0 0 0 172 573 413 292 460 117 161 201 186 220 214 101 84 112 343 253 190 384 289 280 382 528 367 118 70 96 119 62 32 14 36 36 34 241 77 48 17 1 90 56 51 23 348 128 145
0 0 0 0 0 568 523 366 500 279 131 84 17 35 128 34 24 82 103 121 184 315 282 385 405 458 242 30 13 30 33 15 0 0 3 30 37 243 64 0 0 0 0 18 0 50 308 445 445
0 0 0 0 0 2 341 376 464 448 275 108 116 43 51 62 45 6 79 105 175 224 319 450 490 288 92 60 71 43 40 0 0 0 0 0 0 345 0 0 0 0 25 51 52 68 236 287 139
0 0 0 0 83 194 252 349 346 578 460 332 88 44 52 27 17 3 80 178 260 301 339 544 674 180 242 89 18 34 0 0 0 0 0 0 0 228 10 0 13 211 253 280 136 270 195 59 97
0 0 0 0 15 92 201 83 108 450 422 146 34 45 27 22 20 11 48 287 393 315 362 503 606 365 195 16 0 0 0 8 0 0 6 240 307 531 299 115 19 77 269 303 398 214 186 33 19
0 0 0 0 14 6 8 1 0 0 270 469 276 176 61 102 17 43 47 214 409 336 392 394 483 308 182 0 0 3 4 1 5 0 60 417 477 333 458 597 265 300 387 327 278 330 206 45 80
0 0 0 0 0 0 3 12 1 35 107 91 279 371 172 51 52 79 111 205 431 425 512 329 312 306 227 33 4 0 0 0 0 0 85 301 379 51 206 795 567 678 382 616 518 980 501 106 40
0 0 0 0 0 0 0 0 0 0 0 0 80 259 287 82 69 82 98 228 439 617 563 483 231 321 196 62 4 1 0 0 0 0 36 128 149 68 20 161 739 717 672 836 862 834 656 437 221
0 0 0 0 0 0 0 0 1 0 0 0 0 12 134 86 31 14 141 351 559 602 684 351 234 241 179 151 33 5 0 0 2 4 25 51 193 138 41 0 257 851 822 988 933 991 890 679 310
0 0 0 0 0 0 0 0 0 0 0 0 0 0 69 23 0 0 204 435 629 75 461 466 247 249 126 153 105 30 22 4 0 17 106 223 231 298 245 381 141 604 900 936 903 887 1009 805 799
0 0 0 0 0 0 0 0 0 0 0 0 5 10 0 68 29 0 132 420 445 141 93 433 279 252 109 143 129 63 62 36 37 37 50 207 228 416 360 441 600 696 731 889 955 1063 1079 1082 798
0 0 0 0 0 0 0 0 12 14 27 0 90 207 79 0 66 9 119 410 294 169 413 425 290 305 156 130 165 166 119 108 92 75 98 140 240 296 486 972 971 703 554 545 371 769 1145 1148 1159
0 0 0 0 0 0 0 0 0 57 29 47 244 341 138 26 35 59 167 540 381 217 169 484 437 292 203 133 177 279 148 92 164 193 167 159 294 450 573 608 481 153 48 35 43 272 1183 1312 1038
0 0 0 0 0 0 0 0 0 101 100 211 427 321 243 209 45 196 291 497 616 586 620 545 507 477 449 385 298 340 369 221 225 268 343 445 520 825 1135 715 563 435 192 162 752 1266 1558 1414 1323